Time,TemperatureF,DewpointF,PressureIn,WindDirection,WindDirectionDegrees,WindSpeedMPH,WindSpeedGustMPH,Humidity,HourlyPrecipIn,Conditions,Clouds,dailyrainin,SolarRadiationWatts/m^2,SoftwareType,DateUTC
2013-02-18 00:00:00,22.7,3.1,30.14,WNW,291,8.0,13.0,42,0.00,,,0.00,0,WeatherCatV1.11B39,2013-02-18 05:00:00,
2013-02-18 00:05:00,22.9,3.8,30.14,NW,309,10.0,19.0,43,0.00,,,0.00,0,WeatherCatV1.11B39,2013-02-18 05:05:00,
2013-02-18 00:10:00,22.7,2.6,30.14,NW,309,5.0,13.0,41,0.00,,,0.00,0,WeatherCatV1.11B39,2013-02-18 05:10:00,
2013-02-18 00:15:00,22.7,4.1,30.15,WSW,254,4.0,10.0,44,0.00,,,0.00,0,WeatherCatV1.11B39,2013-02-18 05:15:00,
2013-02-18 00:20:00,22.7,3.1,30.15,WNW,295,7.0,10.0,42,0.00,,,0.00,0,WeatherCatV1.11B39,2013-02-18 05:20:00,
2013-02-18 00:25:00,22.5,4.4,30.15,WNW,301,4.0,6.0,45,0.00,,,0.00,0,WeatherCatV1.11B39,2013-02-18 05:25:00,
2013-02-18 00:30:00,22.4,3.8,30.15,NW,318,1.0,5.0,44,0.00,,,0.00,0,WeatherCatV1.11B39,2013-02-18 05:30:00,
2013-02-18 00:35:00,22.2,4.1,30.15,WNW,289,7.0,11.0,45,0.00,,,0.00,0,WeatherCatV1.11B39,2013-02-18 05:35:00,
2013-02-18 00:40:00,22.4,2.8,30.15,North,359,7.0,17.0,42,0.00,,,0.00,0,WeatherCatV1.11B39,2013-02-18 05:40:00,
2013-02-18 00:45:00,22.4,2.3,30.15,WNW,282,11.0,18.0,41,0.00,,,0.00,0,WeatherCatV1.11B39,2013-02-18 05:45:00,
2013-02-18 00:50:00,22.2,2.6,30.15,West,261,5.0,10.0,42,0.00,,,0.00,0,WeatherCatV1.11B39,2013-02-18 05:50:00,
2013-02-18 00:55:00,22.2,2.1,30.15,West,281,5.0,14.0,41,0.00,,,0.00,0,WeatherCatV1.11B39,2013-02-18 05:55:00,
2013-02-18 01:00:00,22.1,2.0,30.16,SE,145,1.0,10.0,41,0.00,,,0.00,0,WeatherCatV1.11B39,2013-02-18 06:00:00,
2013-02-18 01:05:00,22.1,3.1,30.16,NNE,24,6.0,7.0,43,0.00,,,0.00,0,WeatherCatV1.11B39,2013-02-18 06:05:00,
2013-02-18 01:10:00,22.1,2.0,30.16,SW,229,0.0,2.0,41,0.00,,,0.00,0,WeatherCatV1.11B39,2013-02-18 06:10:00,
2013-02-18 01:15:00,22.1,1.5,30.17,WNW,288,5.0,9.0,40,0.00,,,0.00,0,WeatherCatV1.11B39,2013-02-18 06:15:00,
2013-02-18 01:20:00,21.9,2.4,30.17,NW,325,6.0,12.0,42,0.00,,,0.00,0,WeatherCatV1.11B39,2013-02-18 06:20:00,
2013-02-18 01:25:00,21.9,1.9,30.17,WSW,248,7.0,13.0,41,0.00,,,0.00,0,WeatherCatV1.11B39,2013-02-18 06:25:00,
2013-02-18 01:30:00,21.8,2.8,30.16,West,280,3.0,11.0,43,0.00,,,0.00,0,WeatherCatV1.11B39,2013-02-18 06:30:00,
2013-02-18 01:35:00,21.8,1.8,30.16,NW,315,7.0,7.0,41,0.00,,,0.00,0,WeatherCatV1.11B39,2013-02-18 06:35:00,
2013-02-18 01:40:00,21.8,2.3,30.16,NW,315,5.0,7.0,42,0.00,,,0.00,0,WeatherCatV1.11B39,2013-02-18 06:40:00,
2013-02-18 01:45:00,21.6,1.6,30.16,NW,312,7.0,11.0,41,0.00,,,0.00,0,WeatherCatV1.11B39,2013-02-18 06:45:00,
2013-02-18 01:50:00,21.6,2.1,30.16,WNW,287,2.0,5.0,42,0.00,,,0.00,0,WeatherCatV1.11B39,2013-02-18 06:50:00,
2013-02-18 01:55:00,21.4,0.9,30.16,NW,306,3.0,6.0,40,0.00,,,0.00,0,WeatherCatV1.11B39,2013-02-18 06:55:00,
2013-02-18 02:00:00,21.6,2.1,30.17,ESE,107,2.0,5.0,42,0.00,,,0.00,0,WeatherCatV1.11B39,2013-02-18 07:00:00,
2013-02-18 02:05:00,21.4,2.4,30.17,ENE,68,2.0,6.0,43,0.00,,,0.00,0,WeatherCatV1.11B39,2013-02-18 07:05:00,
2013-02-18 02:10:00,21.6,2.6,30.17,East,99,1.0,2.0,43,0.00,,,0.00,0,WeatherCatV1.11B39,2013-02-18 07:10:00,
2013-02-18 02:15:00,21.6,2.1,30.17,ESE,113,0.0,3.0,42,0.00,,,0.00,0,WeatherCatV1.11B39,2013-02-18 07:15:00,
2013-02-18 02:20:00,21.4,2.9,30.17,ESE,113,4.0,6.0,44,0.00,,,0.00,0,WeatherCatV1.11B39,2013-02-18 07:20:00,
2013-02-18 02:25:00,21.4,2.4,30.17,WNW,301,3.0,5.0,43,0.00,,,0.00,0,WeatherCatV1.11B39,2013-02-18 07:25:00,
2013-02-18 02:30:00,21.4,2.9,30.17,WSW,251,5.0,5.0,44,0.00,,,0.00,0,WeatherCatV1.11B39,2013-02-18 07:30:00,
2013-02-18 02:35:00,21.6,2.1,30.17,WNW,288,3.0,3.0,42,0.00,,,0.00,0,WeatherCatV1.11B39,2013-02-18 07:35:00,
2013-02-18 02:40:00,21.1,2.1,30.17,West,267,3.0,10.0,43,0.00,,,0.00,0,WeatherCatV1.11B39,2013-02-18 07:40:00,
2013-02-18 02:45:00,21.1,2.1,30.17,West,260,6.0,13.0,43,0.00,,,0.00,0,WeatherCatV1.11B39,2013-02-18 07:45:00,
2013-02-18 02:50:00,21.0,2.1,30.17,West,271,2.0,14.0,43,0.00,,,0.00,0,WeatherCatV1.11B39,2013-02-18 07:50:00,
2013-02-18 02:55:00,21.0,1.6,30.17,West,263,0.0,6.0,42,0.00,,,0.00,0,WeatherCatV1.11B39,2013-02-18 07:55:00,
2013-02-18 03:00:00,21.0,2.5,30.17,WNW,287,5.0,7.0,44,0.00,,,0.00,0,WeatherCatV1.11B39,2013-02-18 08:00:00,
2013-02-18 03:05:00,21.0,2.5,30.17,SW,227,5.0,6.0,44,0.00,,,0.00,0,WeatherCatV1.11B39,2013-02-18 08:05:00,
2013-02-18 03:10:00,21.0,2.5,30.17,WNW,282,3.0,4.0,44,0.00,,,0.00,0,WeatherCatV1.11B39,2013-02-18 08:10:00,
2013-02-18 03:15:00,21.0,2.1,30.17,West,278,1.0,8.0,43,0.00,,,0.00,0,WeatherCatV1.11B39,2013-02-18 08:15:00,
2013-02-18 03:20:00,20.8,1.9,30.17,WSW,251,3.0,5.0,43,0.00,,,0.00,0,WeatherCatV1.11B39,2013-02-18 08:20:00,
2013-02-18 03:25:00,20.8,1.9,30.17,WNW,285,14.0,14.0,43,0.00,,,0.00,0,WeatherCatV1.11B39,2013-02-18 08:25:00,
2013-02-18 03:30:00,20.6,2.2,30.17,West,281,12.0,15.0,44,0.00,,,0.00,0,WeatherCatV1.11B39,2013-02-18 08:30:00,
2013-02-18 03:35:00,20.6,1.7,30.17,WNW,287,12.0,17.0,43,0.00,,,0.00,0,WeatherCatV1.11B39,2013-02-18 08:35:00,
2013-02-18 03:40:00,20.6,2.2,30.17,West,270,7.0,12.0,44,0.00,,,0.00,0,WeatherCatV1.11B39,2013-02-18 08:40:00,
2013-02-18 03:45:00,20.5,2.1,30.17,WSW,258,5.0,12.0,44,0.00,,,0.00,0,WeatherCatV1.11B39,2013-02-18 08:45:00,
2013-02-18 03:50:00,20.6,2.7,30.17,West,277,5.0,13.0,45,0.00,,,0.00,0,WeatherCatV1.11B39,2013-02-18 08:50:00,
2013-02-18 03:55:00,20.6,1.7,30.17,WSW,257,6.0,8.0,43,0.00,,,0.00,0,WeatherCatV1.11B39,2013-02-18 08:55:00,
2013-02-18 04:00:00,20.6,2.7,30.17,West,272,0.0,7.0,45,0.00,,,0.00,0,WeatherCatV1.11B39,2013-02-18 09:00:00,
2013-02-18 04:05:00,20.6,1.7,30.17,West,281,2.0,12.0,43,0.00,,,0.00,0,WeatherCatV1.11B39,2013-02-18 09:05:00,
2013-02-18 04:10:00,20.6,1.7,30.17,North,8,0.0,5.0,43,0.00,,,0.00,0,WeatherCatV1.11B39,2013-02-18 09:10:00,
2013-02-18 04:15:00,20.8,2.4,30.17,South,176,5.0,5.0,44,0.00,,,0.00,0,WeatherCatV1.11B39,2013-02-18 09:15:00,
2013-02-18 04:20:00,20.6,2.7,30.17,ENE,61,2.0,5.0,45,0.00,,,0.00,0,WeatherCatV1.11B39,2013-02-18 09:20:00,
2013-02-18 04:25:00,20.6,1.2,30.17,WSW,254,3.0,5.0,42,0.00,,,0.00,0,WeatherCatV1.11B39,2013-02-18 09:25:00,
2013-02-18 04:30:00,20.6,2.2,30.18,NW,313,3.0,8.0,44,0.00,,,0.00,0,WeatherCatV1.11B39,2013-02-18 09:30:00,
2013-02-18 04:35:00,20.6,2.2,30.18,NW,304,0.0,8.0,44,0.00,,,0.00,0,WeatherCatV1.11B39,2013-02-18 09:35:00,
2013-02-18 04:40:00,20.6,2.2,30.18,East,97,3.0,5.0,44,0.00,,,0.00,0,WeatherCatV1.11B39,2013-02-18 09:40:00,
2013-02-18 04:45:00,20.6,2.2,30.19,SSE,151,5.0,5.0,44,0.00,,,0.00,0,WeatherCatV1.11B39,2013-02-18 09:45:00,
2013-02-18 04:50:00,20.6,2.2,30.19,ESE,117,4.0,5.0,44,0.00,,,0.00,0,WeatherCatV1.11B39,2013-02-18 09:50:00,
2013-02-18 04:55:00,20.6,1.7,30.19,WNW,287,5.0,10.0,43,0.00,,,0.00,0,WeatherCatV1.11B39,2013-02-18 09:55:00,
2013-02-18 05:00:00,20.8,1.9,30.20,WNW,292,2.0,16.0,43,0.00,,,0.00,0,WeatherCatV1.11B39,2013-02-18 10:00:00,
2013-02-18 05:05:00,20.8,2.8,30.20,West,264,0.0,10.0,45,0.00,,,0.00,0,WeatherCatV1.11B39,2013-02-18 10:05:00,
2013-02-18 05:10:00,20.6,2.7,30.20,West,268,17.0,19.0,45,0.00,,,0.00,0,WeatherCatV1.11B39,2013-02-18 10:10:00,
2013-02-18 05:15:00,20.6,2.2,30.21,NW,304,3.0,5.0,44,0.00,,,0.00,0,WeatherCatV1.11B39,2013-02-18 10:15:00,
2013-02-18 05:20:00,20.6,2.2,30.21,WNW,295,10.0,17.0,44,0.00,,,0.00,0,WeatherCatV1.11B39,2013-02-18 10:20:00,
2013-02-18 05:25:00,20.6,2.2,30.21,NW,320,2.0,7.0,44,0.00,,,0.00,0,WeatherCatV1.11B39,2013-02-18 10:25:00,
2013-02-18 05:30:00,20.6,2.7,30.22,West,261,11.0,14.0,45,0.00,,,0.00,0,WeatherCatV1.11B39,2013-02-18 10:30:00,
2013-02-18 05:35:00,20.6,2.7,30.22,WNW,285,9.0,9.0,45,0.00,,,0.00,0,WeatherCatV1.11B39,2013-02-18 10:35:00,
2013-02-18 05:40:00,20.6,2.7,30.22,West,261,2.0,3.0,45,0.00,,,0.00,0,WeatherCatV1.11B39,2013-02-18 10:40:00,
2013-02-18 05:45:00,20.6,3.1,30.23,WSW,253,4.0,7.0,46,0.00,,,0.00,0,WeatherCatV1.11B39,2013-02-18 10:45:00,
2013-02-18 05:50:00,20.5,2.1,30.23,WSW,246,5.0,14.0,44,0.00,,,0.00,0,WeatherCatV1.11B39,2013-02-18 10:50:00,
2013-02-18 05:55:00,20.2,3.2,30.23,WSW,243,5.0,8.0,47,0.00,,,0.00,0,WeatherCatV1.11B39,2013-02-18 10:55:00,
2013-02-18 06:00:00,20.0,3.5,30.24,WSW,246,7.0,7.0,48,0.00,,,0.00,0,WeatherCatV1.11B39,2013-02-18 11:00:00,
2013-02-18 06:05:00,20.2,3.7,30.24,WSW,256,0.0,2.0,48,0.00,,,0.00,0,WeatherCatV1.11B39,2013-02-18 11:05:00,
2013-02-18 06:10:00,20.2,3.2,30.24,WNW,282,8.0,8.0,47,0.00,,,0.00,0,WeatherCatV1.11B39,2013-02-18 11:10:00,
2013-02-18 06:15:00,20.3,2.9,30.25,West,261,6.0,11.0,46,0.00,,,0.00,0,WeatherCatV1.11B39,2013-02-18 11:15:00,
2013-02-18 06:20:00,20.3,3.3,30.25,NW,320,2.0,5.0,47,0.00,,,0.00,0,WeatherCatV1.11B39,2013-02-18 11:20:00,
2013-02-18 06:25:00,20.5,3.0,30.25,WNW,295,2.0,5.0,46,0.00,,,0.00,0,WeatherCatV1.11B39,2013-02-18 11:25:00,
2013-02-18 06:30:00,20.5,3.0,30.25,SE,136,0.0,2.0,46,0.00,,,0.00,0,WeatherCatV1.11B39,2013-02-18 11:30:00,
2013-02-18 06:35:00,20.3,3.3,30.25,NNW,329,11.0,13.0,47,0.00,,,0.00,0,WeatherCatV1.11B39,2013-02-18 11:35:00,
2013-02-18 06:40:00,20.2,2.8,30.25,NW,312,0.0,6.0,46,0.00,,,0.00,0,WeatherCatV1.11B39,2013-02-18 11:40:00,
2013-02-18 06:45:00,20.2,2.8,30.26,WNW,292,2.0,7.0,46,0.00,,,0.00,0,WeatherCatV1.11B39,2013-02-18 11:45:00,
2013-02-18 06:50:00,20.3,3.8,30.26,South,172,0.0,2.0,48,0.00,,,0.00,0,WeatherCatV1.11B39,2013-02-18 11:50:00,
2013-02-18 06:55:00,20.3,4.7,30.26,SSW,203,1.0,2.0,50,0.00,,,0.00,5,WeatherCatV1.11B39,2013-02-18 11:55:00,
2013-02-18 07:00:00,20.3,2.9,30.26,WSW,250,3.0,11.0,46,0.00,,,0.00,7,WeatherCatV1.11B39,2013-02-18 12:00:00,
2013-02-18 07:05:00,20.3,3.3,30.26,NNW,339,5.0,5.0,47,0.00,,,0.00,9,WeatherCatV1.11B39,2013-02-18 12:05:00,
2013-02-18 07:10:00,20.5,4.4,30.26,SSW,200,7.0,9.0,49,0.00,,,0.00,21,WeatherCatV1.11B39,2013-02-18 12:10:00,
2013-02-18 07:15:00,20.6,4.1,30.27,WNW,287,5.0,6.0,48,0.00,,,0.00,28,WeatherCatV1.11B39,2013-02-18 12:15:00,
2013-02-18 07:20:00,20.6,4.1,30.27,WSW,239,3.0,4.0,48,0.00,,,0.00,35,WeatherCatV1.11B39,2013-02-18 12:20:00,
2013-02-18 07:25:00,20.8,4.2,30.27,West,268,1.0,4.0,48,0.00,,,0.00,44,WeatherCatV1.11B39,2013-02-18 12:25:00,
2013-02-18 07:30:00,21.1,4.1,30.28,WSW,257,4.0,7.0,47,0.00,,,0.00,65,WeatherCatV1.11B39,2013-02-18 12:30:00,
2013-02-18 07:35:00,21.1,4.1,30.28,West,263,3.0,4.0,47,0.00,,,0.00,79,WeatherCatV1.11B39,2013-02-18 12:35:00,
2013-02-18 07:40:00,21.3,4.7,30.28,SW,233,1.0,6.0,48,0.00,,,0.00,95,WeatherCatV1.11B39,2013-02-18 12:40:00,
2013-02-18 07:45:00,21.8,4.2,30.28,SSW,213,1.0,5.0,46,0.00,,,0.00,109,WeatherCatV1.11B39,2013-02-18 12:45:00,
2013-02-18 07:50:00,22.5,4.4,30.28,SW,220,0.0,5.0,45,0.00,,,0.00,123,WeatherCatV1.11B39,2013-02-18 12:50:00,
2013-02-18 07:55:00,22.7,5.5,30.28,WSW,248,3.0,5.0,47,0.00,,,0.00,135,WeatherCatV1.11B39,2013-02-18 12:55:00,
2013-02-18 08:00:00,22.9,4.3,30.28,ENE,75,2.0,3.0,44,0.00,,,0.00,148,WeatherCatV1.11B39,2013-02-18 13:00:00,
2013-02-18 08:05:00,22.7,4.1,30.28,WSW,237,2.0,6.0,44,0.00,,,0.00,162,WeatherCatV1.11B39,2013-02-18 13:05:00,
2013-02-18 08:10:00,23.8,5.1,30.28,WSW,237,1.0,3.0,44,0.00,,,0.00,176,WeatherCatV1.11B39,2013-02-18 13:10:00,
2013-02-18 08:15:00,23.6,5.4,30.30,West,265,5.0,6.0,45,0.00,,,0.00,188,WeatherCatV1.11B39,2013-02-18 13:15:00,
2013-02-18 08:20:00,23.5,5.3,30.30,SW,232,6.0,9.0,45,0.00,,,0.00,204,WeatherCatV1.11B39,2013-02-18 13:20:00,
2013-02-18 08:25:00,22.9,3.8,30.30,West,265,5.0,7.0,43,0.00,,,0.00,216,WeatherCatV1.11B39,2013-02-18 13:25:00,
2013-02-18 08:30:00,23.3,4.2,30.31,WNW,302,2.0,8.0,43,0.00,,,0.00,230,WeatherCatV1.11B39,2013-02-18 13:30:00,
2013-02-18 08:35:00,23.6,4.9,30.31,WSW,254,5.0,10.0,44,0.00,,,0.00,246,WeatherCatV1.11B39,2013-02-18 13:35:00,
2013-02-18 08:40:00,24.5,5.2,30.31,WSW,257,0.0,2.0,43,0.00,,,0.00,259,WeatherCatV1.11B39,2013-02-18 13:40:00,
2013-02-18 08:45:00,24.7,5.9,30.31,West,260,6.0,10.0,44,0.00,,,0.00,273,WeatherCatV1.11B39,2013-02-18 13:45:00,
2013-02-18 08:50:00,23.6,3.9,30.31,West,264,11.0,13.0,42,0.00,,,0.00,287,WeatherCatV1.11B39,2013-02-18 13:50:00,
2013-02-18 08:55:00,23.5,3.3,30.31,WNW,292,3.0,17.0,41,0.00,,,0.00,299,WeatherCatV1.11B39,2013-02-18 13:55:00,
2013-02-18 09:00:00,23.8,3.6,30.31,WSW,246,5.0,10.0,41,0.00,,,0.00,311,WeatherCatV1.11B39,2013-02-18 14:00:00,
2013-02-18 09:05:00,23.6,3.9,30.31,WNW,282,9.0,9.0,42,0.00,,,0.00,326,WeatherCatV1.11B39,2013-02-18 14:05:00,
2013-02-18 09:10:00,24.4,4.6,30.31,WSW,257,5.0,7.0,42,0.00,,,0.00,340,WeatherCatV1.11B39,2013-02-18 14:10:00,
2013-02-18 09:15:00,24.1,4.9,30.31,WNW,288,7.0,14.0,43,0.00,,,0.00,352,WeatherCatV1.11B39,2013-02-18 14:15:00,
2013-02-18 09:20:00,24.7,5.4,30.31,WSW,243,4.0,7.0,43,0.00,,,0.00,362,WeatherCatV1.11B39,2013-02-18 14:20:00,
2013-02-18 09:25:00,24.4,4.6,30.31,West,271,7.0,12.0,42,0.00,,,0.00,377,WeatherCatV1.11B39,2013-02-18 14:25:00,
2013-02-18 09:30:00,24.8,5.5,30.31,WNW,299,8.0,12.0,43,0.00,,,0.00,387,WeatherCatV1.11B39,2013-02-18 14:30:00,
2013-02-18 09:35:00,25.3,5.5,30.31,WSW,253,6.0,8.0,42,0.00,,,0.00,396,WeatherCatV1.11B39,2013-02-18 14:35:00,
2013-02-18 09:40:00,25.6,5.7,30.31,SW,224,11.0,11.0,42,0.00,,,0.00,410,WeatherCatV1.11B39,2013-02-18 14:40:00,
2013-02-18 09:45:00,26.1,6.2,30.31,WSW,239,8.0,11.0,42,0.00,,,0.00,424,WeatherCatV1.11B39,2013-02-18 14:45:00,
2013-02-18 09:50:00,26.0,5.6,30.31,SW,234,8.0,16.0,41,0.00,,,0.00,435,WeatherCatV1.11B39,2013-02-18 14:50:00,
2013-02-18 09:55:00,25.6,4.7,30.31,WSW,253,5.0,12.0,40,0.00,,,0.00,445,WeatherCatV1.11B39,2013-02-18 14:55:00,
2013-02-18 10:00:00,26.3,5.8,30.30,West,261,12.0,12.0,41,0.00,,,0.00,456,WeatherCatV1.11B39,2013-02-18 15:00:00,
2013-02-18 10:05:00,25.8,5.4,30.30,WSW,251,5.0,12.0,41,0.00,,,0.00,463,WeatherCatV1.11B39,2013-02-18 15:05:00,
2013-02-18 10:10:00,26.1,6.2,30.30,WNW,298,6.0,7.0,42,0.00,,,0.00,473,WeatherCatV1.11B39,2013-02-18 15:10:00,
2013-02-18 10:15:00,27.0,5.4,30.30,WSW,257,6.0,14.0,39,0.00,,,0.00,486,WeatherCatV1.11B39,2013-02-18 15:15:00,
2013-02-18 10:20:00,27.3,6.7,30.30,WSW,256,9.0,12.0,41,0.00,,,0.00,494,WeatherCatV1.11B39,2013-02-18 15:20:00,
2013-02-18 10:25:00,27.2,5.0,30.30,WSW,250,7.0,8.0,38,0.00,,,0.00,505,WeatherCatV1.11B39,2013-02-18 15:25:00,
2013-02-18 10:30:00,27.3,6.2,30.30,West,260,2.0,7.0,40,0.00,,,0.00,514,WeatherCatV1.11B39,2013-02-18 15:30:00,
2013-02-18 10:35:00,28.5,7.3,30.30,WNW,294,2.0,5.0,40,0.00,,,0.00,519,WeatherCatV1.11B39,2013-02-18 15:35:00,
2013-02-18 10:40:00,28.5,6.7,30.30,WNW,294,6.0,12.0,39,0.00,,,0.00,524,WeatherCatV1.11B39,2013-02-18 15:40:00,
2013-02-18 10:45:00,28.2,6.5,30.29,WNW,295,11.0,14.0,39,0.00,,,0.00,537,WeatherCatV1.11B39,2013-02-18 15:45:00,
2013-02-18 10:50:00,28.2,5.9,30.29,WNW,292,3.0,8.0,38,0.00,,,0.00,547,WeatherCatV1.11B39,2013-02-18 15:50:00,
2013-02-18 10:55:00,29.4,7.5,30.29,SSW,205,5.0,6.0,39,0.00,,,0.00,552,WeatherCatV1.11B39,2013-02-18 15:55:00,
2013-02-18 11:00:00,29.7,6.1,30.29,West,263,0.0,7.0,36,0.00,,,0.00,554,WeatherCatV1.11B39,2013-02-18 16:00:00,
2013-02-18 11:05:00,30.3,6.0,30.29,WSW,251,8.0,11.0,35,0.00,,,0.00,565,WeatherCatV1.11B39,2013-02-18 16:05:00,
2013-02-18 11:10:00,30.6,6.2,30.29,NNW,330,5.0,8.0,35,0.00,,,0.00,575,WeatherCatV1.11B39,2013-02-18 16:10:00,
2013-02-18 11:15:00,31.3,6.2,30.28,West,277,5.0,7.0,34,0.00,,,0.00,579,WeatherCatV1.11B39,2013-02-18 16:15:00,
2013-02-18 11:20:00,30.9,5.2,30.28,NW,309,3.0,8.0,33,0.00,,,0.00,584,WeatherCatV1.11B39,2013-02-18 16:20:00,
2013-02-18 11:25:00,30.9,5.2,30.28,West,264,2.0,6.0,33,0.00,,,0.00,579,WeatherCatV1.11B39,2013-02-18 16:25:00,
2013-02-18 11:30:00,32.7,6.8,30.27,SW,234,8.0,8.0,33,0.00,,,0.00,584,WeatherCatV1.11B39,2013-02-18 16:30:00,
2013-02-18 11:35:00,31.5,6.4,30.27,West,280,11.0,13.0,34,0.00,,,0.00,596,WeatherCatV1.11B39,2013-02-18 16:35:00,
2013-02-18 11:40:00,31.8,6.0,30.27,West,267,5.0,7.0,33,0.00,,,0.00,598,WeatherCatV1.11B39,2013-02-18 16:40:00,
2013-02-18 11:45:00,32.5,5.3,30.27,WSW,240,1.0,5.0,31,0.00,,,0.00,604,WeatherCatV1.11B39,2013-02-18 16:45:00,
2013-02-18 11:49:00,34.1,5.9,30.27,SSW,196,0.0,4.0,30,0.00,,,0.00,598,WeatherCatV1.11B39,2013-02-18 16:49:00,
2013-02-18 11:54:00,35.6,7.3,30.27,South,188,6.0,6.0,30,0.00,,,0.00,605,WeatherCatV1.11B39,2013-02-18 16:54:00,
2013-02-18 11:59:00,35.8,7.4,30.25,SSW,202,6.0,7.0,30,0.00,,,0.00,612,WeatherCatV1.11B39,2013-02-18 16:59:00,
2013-02-18 12:04:00,34.9,6.6,30.25,West,268,6.0,7.0,30,0.00,,,0.00,612,WeatherCatV1.11B39,2013-02-18 17:04:00,
2013-02-18 12:09:00,35.6,8.0,30.25,WSW,239,3.0,5.0,31,0.00,,,0.00,614,WeatherCatV1.11B39,2013-02-18 17:09:00,
2013-02-18 12:14:00,36.9,8.4,30.24,SSW,202,3.0,6.0,30,0.00,,,0.00,611,WeatherCatV1.11B39,2013-02-18 17:14:00,
2013-02-18 12:19:00,37.5,5.8,30.24,SSW,203,6.0,7.0,26,0.00,,,0.00,614,WeatherCatV1.11B39,2013-02-18 17:19:00,
2013-02-18 12:24:00,36.8,6.8,30.24,West,280,9.0,10.0,28,0.00,,,0.00,611,WeatherCatV1.11B39,2013-02-18 17:24:00,
2013-02-18 12:29:00,34.7,5.0,30.24,WSW,256,5.0,11.0,28,0.00,,,0.00,596,WeatherCatV1.11B39,2013-02-18 17:29:00,
2013-02-18 12:34:00,35.3,5.5,30.24,WSW,237,7.0,12.0,28,0.00,,,0.00,591,WeatherCatV1.11B39,2013-02-18 17:34:00,
2013-02-18 12:39:00,35.6,6.5,30.24,SW,236,6.0,10.0,29,0.00,,,0.00,591,WeatherCatV1.11B39,2013-02-18 17:39:00,
2013-02-18 12:44:00,36.5,8.0,30.23,SW,219,7.0,12.0,30,0.00,,,0.00,600,WeatherCatV1.11B39,2013-02-18 17:44:00,
2013-02-18 12:49:00,36.0,8.3,30.23,SSW,200,7.0,11.0,31,0.00,,,0.00,605,WeatherCatV1.11B39,2013-02-18 17:49:00,
2013-02-18 12:54:00,36.9,7.6,30.23,SW,233,5.0,8.0,29,0.00,,,0.00,604,WeatherCatV1.11B39,2013-02-18 17:54:00,
2013-02-18 12:59:00,37.3,7.2,30.22,SW,229,1.0,5.0,28,0.00,,,0.00,595,WeatherCatV1.11B39,2013-02-18 17:59:00,
2013-02-18 13:04:00,38.0,7.8,30.22,WSW,253,7.0,13.0,28,0.00,,,0.00,595,WeatherCatV1.11B39,2013-02-18 18:04:00,
2013-02-18 13:09:00,36.5,5.7,30.22,WSW,250,10.0,10.0,27,0.00,,,0.00,596,WeatherCatV1.11B39,2013-02-18 18:09:00,
2013-02-18 13:15:00,37.0,5.3,30.21,SSW,199,3.0,7.0,26,0.00,,,0.00,596,WeatherCatV1.11B39,2013-02-18 18:15:00,
2013-02-18 13:20:00,37.3,7.2,30.21,SSW,206,5.0,11.0,28,0.00,,,0.00,593,WeatherCatV1.11B39,2013-02-18 18:20:00,
2013-02-18 13:25:00,38.5,6.6,30.21,SW,233,5.0,6.0,26,0.00,,,0.00,586,WeatherCatV1.11B39,2013-02-18 18:25:00,
2013-02-18 13:30:00,39.1,7.1,30.20,South,182,5.0,7.0,26,0.00,,,0.00,581,WeatherCatV1.11B39,2013-02-18 18:30:00,
2013-02-18 13:35:00,38.9,7.8,30.20,South,186,4.0,7.0,27,0.00,,,0.00,575,WeatherCatV1.11B39,2013-02-18 18:35:00,
2013-02-18 13:40:00,39.3,7.3,30.20,SSW,195,3.0,8.0,26,0.00,,,0.00,568,WeatherCatV1.11B39,2013-02-18 18:40:00,
2013-02-18 13:45:00,39.5,5.7,30.19,South,189,2.0,10.0,24,0.00,,,0.00,560,WeatherCatV1.11B39,2013-02-18 18:45:00,
2013-02-18 13:50:00,40.6,7.6,30.19,SSW,199,1.0,6.0,25,0.00,,,0.00,552,WeatherCatV1.11B39,2013-02-18 18:50:00,
2013-02-18 13:55:00,41.2,8.1,30.19,WSW,247,2.0,7.0,25,0.00,,,0.00,545,WeatherCatV1.11B39,2013-02-18 18:55:00,
2013-02-18 14:00:00,40.6,7.6,30.18,SSW,200,9.0,9.0,25,0.00,,,0.00,537,WeatherCatV1.11B39,2013-02-18 19:00:00,
2013-02-18 14:05:00,41.1,7.1,30.18,SSW,192,5.0,6.0,24,0.00,,,0.00,533,WeatherCatV1.11B39,2013-02-18 19:05:00,
2013-02-18 14:10:00,40.9,7.8,30.18,WSW,240,3.0,10.0,25,0.00,,,0.00,521,WeatherCatV1.11B39,2013-02-18 19:10:00,
2013-02-18 14:15:00,40.6,8.4,30.18,WSW,244,4.0,7.0,26,0.00,,,0.00,514,WeatherCatV1.11B39,2013-02-18 19:15:00,
2013-02-18 14:20:00,40.9,8.7,30.18,WSW,243,2.0,11.0,26,0.00,,,0.00,501,WeatherCatV1.11B39,2013-02-18 19:20:00,
2013-02-18 14:25:00,41.3,8.2,30.18,South,169,2.0,8.0,25,0.00,,,0.00,487,WeatherCatV1.11B39,2013-02-18 19:25:00,
2013-02-18 14:30:00,41.6,7.5,30.17,SSW,210,4.0,4.0,24,0.00,,,0.00,479,WeatherCatV1.11B39,2013-02-18 19:30:00,
2013-02-18 14:35:00,41.8,6.8,30.17,South,178,2.0,7.0,23,0.00,,,0.00,468,WeatherCatV1.11B39,2013-02-18 19:35:00,
2013-02-18 14:40:00,42.3,9.9,30.17,SSW,193,7.0,8.0,26,0.00,,,0.00,457,WeatherCatV1.11B39,2013-02-18 19:40:00,
2013-02-18 14:45:00,42.3,7.2,30.16,WSW,243,3.0,7.0,23,0.00,,,0.00,449,WeatherCatV1.11B39,2013-02-18 19:45:00,
2013-02-18 14:50:00,42.1,7.9,30.16,WSW,237,7.0,7.0,24,0.00,,,0.00,436,WeatherCatV1.11B39,2013-02-18 19:50:00,
2013-02-18 14:55:00,41.9,6.8,30.16,SSW,193,2.0,8.0,23,0.00,,,0.00,428,WeatherCatV1.11B39,2013-02-18 19:55:00,
2013-02-18 15:00:00,40.9,6.0,30.16,SSE,150,6.0,6.0,23,0.00,,,0.00,417,WeatherCatV1.11B39,2013-02-18 20:00:00,
2013-02-18 15:05:00,41.2,8.9,30.16,SSW,205,2.0,6.0,26,0.00,,,0.00,405,WeatherCatV1.11B39,2013-02-18 20:05:00,
2013-02-18 15:10:00,41.6,6.6,30.16,SSW,212,6.0,10.0,23,0.00,,,0.00,391,WeatherCatV1.11B39,2013-02-18 20:10:00,
2013-02-18 15:15:00,42.1,7.9,30.16,SSE,151,5.0,7.0,24,0.00,,,0.00,378,WeatherCatV1.11B39,2013-02-18 20:15:00,
2013-02-18 15:20:00,41.6,8.4,30.16,South,169,7.0,8.0,25,0.00,,,0.00,373,WeatherCatV1.11B39,2013-02-18 20:20:00,
2013-02-18 15:25:00,40.5,7.5,30.16,SSE,161,3.0,5.0,25,0.00,,,0.00,357,WeatherCatV1.11B39,2013-02-18 20:25:00,
2013-02-18 15:37:00,40.9,9.5,30.16,SSW,205,3.0,6.0,27,0.00,,,0.00,327,WeatherCatV1.11B39,2013-02-18 20:37:00,
2013-02-18 15:42:00,40.5,7.5,30.16,South,178,6.0,10.0,25,0.00,,,0.00,315,WeatherCatV1.11B39,2013-02-18 20:42:00,
2013-02-18 15:47:00,40.3,9.8,30.15,SSE,162,10.0,10.0,28,0.00,,,0.00,225,WeatherCatV1.11B39,2013-02-18 20:47:00,
2013-02-18 15:52:00,40.1,8.8,30.15,SSE,168,4.0,7.0,27,0.00,,,0.00,266,WeatherCatV1.11B39,2013-02-18 20:52:00,
2013-02-18 15:57:00,40.5,9.2,30.15,South,176,6.0,10.0,27,0.00,,,0.00,273,WeatherCatV1.11B39,2013-02-18 20:57:00,
2013-02-18 16:02:00,40.6,10.1,30.15,South,169,9.0,11.0,28,0.00,,,0.00,271,WeatherCatV1.11B39,2013-02-18 21:02:00,
2013-02-18 16:07:00,40.6,8.4,30.15,South,169,10.0,11.0,26,0.00,,,0.00,245,WeatherCatV1.11B39,2013-02-18 21:07:00,
2013-02-18 16:12:00,40.3,8.2,30.15,SSE,161,6.0,8.0,26,0.00,,,0.00,215,WeatherCatV1.11B39,2013-02-18 21:12:00,
2013-02-18 16:17:00,40.3,8.2,30.15,South,179,4.0,12.0,26,0.00,,,0.00,146,WeatherCatV1.11B39,2013-02-18 21:17:00,
2013-02-18 16:22:00,40.8,7.7,30.15,South,175,6.0,10.0,25,0.00,,,0.00,195,WeatherCatV1.11B39,2013-02-18 21:22:00,
2013-02-18 16:27:00,41.1,8.9,30.15,South,186,4.0,7.0,26,0.00,,,0.00,146,WeatherCatV1.11B39,2013-02-18 21:27:00,
2013-02-18 16:32:00,41.2,8.9,30.14,SSE,155,2.0,7.0,26,0.00,,,0.00,113,WeatherCatV1.11B39,2013-02-18 21:32:00,
2013-02-18 16:37:00,40.9,9.5,30.14,South,169,2.0,10.0,27,0.00,,,0.00,114,WeatherCatV1.11B39,2013-02-18 21:37:00,
2013-02-18 16:42:00,40.9,9.5,30.14,SSE,164,7.0,10.0,27,0.00,,,0.00,127,WeatherCatV1.11B39,2013-02-18 21:42:00,
2013-02-18 16:47:00,40.3,9.0,30.15,South,184,6.0,13.0,27,0.00,,,0.00,81,WeatherCatV1.11B39,2013-02-18 21:47:00,
2013-02-18 16:52:00,40.1,8.0,30.15,South,176,6.0,10.0,26,0.00,,,0.00,51,WeatherCatV1.11B39,2013-02-18 21:52:00,
2013-02-18 17:03:00,40.1,9.6,30.14,SSE,164,3.0,6.0,28,0.00,,,0.00,60,WeatherCatV1.11B39,2013-02-18 22:03:00,
2013-02-18 17:08:00,40.1,8.8,30.14,South,182,1.0,3.0,27,0.00,,,0.00,51,WeatherCatV1.11B39,2013-02-18 22:08:00,
2013-02-18 17:13:00,40.1,8.8,30.14,South,171,4.0,4.0,27,0.00,,,0.00,39,WeatherCatV1.11B39,2013-02-18 22:13:00,
2013-02-18 17:18:00,40.1,9.6,30.15,SSE,167,2.0,5.0,28,0.00,,,0.00,32,WeatherCatV1.11B39,2013-02-18 22:18:00,
2013-02-18 17:23:00,39.9,8.7,30.15,South,174,2.0,7.0,27,0.00,,,0.00,28,WeatherCatV1.11B39,2013-02-18 22:23:00,
2013-02-18 17:28:00,39.9,9.5,30.15,South,169,3.0,7.0,28,0.00,,,0.00,25,WeatherCatV1.11B39,2013-02-18 22:28:00,
2013-02-18 17:33:00,39.8,8.6,30.15,South,189,3.0,6.0,27,0.00,,,0.00,19,WeatherCatV1.11B39,2013-02-18 22:33:00,
2013-02-18 17:46:00,39.3,10.5,30.15,South,186,3.0,4.0,30,0.00,,,0.00,9,WeatherCatV1.11B39,2013-02-18 22:46:00,
2013-02-18 17:51:00,39.3,11.2,30.15,South,188,1.0,1.0,31,0.00,,,0.00,5,WeatherCatV1.11B39,2013-02-18 22:51:00,
2013-02-18 17:56:00,39.2,11.1,30.15,South,186,0.0,2.0,31,0.00,,,0.00,0,WeatherCatV1.11B39,2013-02-18 22:56:00,
2013-02-18 18:01:00,39.1,11.0,30.15,South,188,1.0,1.0,31,0.00,,,0.00,0,WeatherCatV1.11B39,2013-02-18 23:01:00,
2013-02-18 18:06:00,38.9,13.6,30.15,South,186,1.0,3.0,35,0.00,,,0.00,0,WeatherCatV1.11B39,2013-02-18 23:06:00,
2013-02-18 18:11:00,37.6,14.9,30.15,South,186,2.0,2.0,39,0.00,,,0.00,0,WeatherCatV1.11B39,2013-02-18 23:11:00,
2013-02-18 18:16:00,36.5,15.6,30.15,South,186,0.0,2.0,42,0.00,,,0.00,0,WeatherCatV1.11B39,2013-02-18 23:16:00,
2013-02-18 18:21:00,35.6,16.4,30.15,South,186,2.0,2.0,45,0.00,,,0.00,0,WeatherCatV1.11B39,2013-02-18 23:21:00,
2013-02-18 18:26:00,35.0,15.3,30.15,South,186,0.0,2.0,44,0.00,,,0.00,0,WeatherCatV1.11B39,2013-02-18 23:26:00,
2013-02-18 18:31:00,34.9,15.2,30.15,South,186,0.0,0.0,44,0.00,,,0.00,0,WeatherCatV1.11B39,2013-02-18 23:31:00,
2013-02-18 18:36:00,34.9,15.7,30.15,South,186,0.0,0.0,45,0.00,,,0.00,0,WeatherCatV1.11B39,2013-02-18 23:36:00,
2013-02-18 18:41:00,34.3,16.7,30.15,South,186,0.0,2.0,48,0.00,,,0.00,0,WeatherCatV1.11B39,2013-02-18 23:41:00,
2013-02-18 18:46:00,33.7,16.6,30.15,South,186,1.0,2.0,49,0.00,,,0.00,0,WeatherCatV1.11B39,2013-02-18 23:46:00,
2013-02-18 18:51:00,33.5,15.5,30.15,South,186,0.0,1.0,47,0.00,,,0.00,0,WeatherCatV1.11B39,2013-02-18 23:51:00,
2013-02-18 18:56:00,34.0,15.9,30.15,South,186,0.0,0.0,47,0.00,,,0.00,0,WeatherCatV1.11B39,2013-02-18 23:56:00,
2013-02-18 19:01:00,34.9,16.2,30.15,South,186,0.0,0.0,46,0.00,,,0.00,0,WeatherCatV1.11B39,2013-02-19 00:01:00,
2013-02-18 19:06:00,35.0,17.3,30.15,South,186,1.0,2.0,48,0.00,,,0.00,0,WeatherCatV1.11B39,2013-02-19 00:06:00,
2013-02-18 19:11:00,33.8,18.1,30.15,South,186,0.0,2.0,52,0.00,,,0.00,0,WeatherCatV1.11B39,2013-02-19 00:11:00,
2013-02-18 19:16:00,33.5,16.9,30.15,South,186,0.0,0.0,50,0.00,,,0.00,0,WeatherCatV1.11B39,2013-02-19 00:16:00,
2013-02-18 19:21:00,33.7,17.1,30.15,South,186,0.0,0.0,50,0.00,,,0.00,0,WeatherCatV1.11B39,2013-02-19 00:21:00,
2013-02-18 19:26:00,34.0,18.2,30.15,South,186,0.0,0.0,52,0.00,,,0.00,0,WeatherCatV1.11B39,2013-02-19 00:26:00,
2013-02-18 19:31:00,34.1,17.9,30.14,South,186,0.0,0.0,51,0.00,,,0.00,0,WeatherCatV1.11B39,2013-02-19 00:31:00,
2013-02-18 19:36:00,33.7,18.0,30.14,South,186,0.0,0.0,52,0.00,,,0.00,0,WeatherCatV1.11B39,2013-02-19 00:36:00,
2013-02-18 19:41:00,32.9,18.5,30.14,South,186,1.0,1.0,55,0.00,,,0.00,0,WeatherCatV1.11B39,2013-02-19 00:41:00,
2013-02-18 19:46:00,32.4,18.1,30.14,South,186,0.0,0.0,55,0.00,,,0.00,0,WeatherCatV1.11B39,2013-02-19 00:46:00,
2013-02-18 19:51:00,32.4,18.1,30.14,South,186,0.0,2.0,55,0.00,,,0.00,0,WeatherCatV1.11B39,2013-02-19 00:51:00,
2013-02-18 19:56:00,32.2,16.1,30.14,South,186,0.0,1.0,51,0.00,,,0.00,0,WeatherCatV1.11B39,2013-02-19 00:56:00,
2013-02-18 20:01:00,32.7,17.0,30.14,South,186,1.0,1.0,52,0.00,,,0.00,0,WeatherCatV1.11B39,2013-02-19 01:01:00,
2013-02-18 20:06:00,32.7,16.6,30.14,South,186,0.0,1.0,51,0.00,,,0.00,0,WeatherCatV1.11B39,2013-02-19 01:06:00,
2013-02-18 20:11:00,32.8,16.2,30.14,South,186,1.0,1.0,50,0.00,,,0.00,0,WeatherCatV1.11B39,2013-02-19 01:11:00,
2013-02-18 20:16:00,32.9,16.8,30.13,South,186,2.0,3.0,51,0.00,,,0.00,0,WeatherCatV1.11B39,2013-02-19 01:16:00,
2013-02-18 20:21:00,33.4,17.2,30.13,South,186,0.0,0.0,51,0.00,,,0.00,0,WeatherCatV1.11B39,2013-02-19 01:21:00,
2013-02-18 20:26:00,34.0,15.4,30.13,South,186,0.0,0.0,46,0.00,,,0.00,0,WeatherCatV1.11B39,2013-02-19 01:26:00,
2013-02-18 20:30:00,34.4,15.3,30.12,South,186,0.0,0.0,45,0.00,,,0.00,0,WeatherCatV1.11B39,2013-02-19 01:30:00,
2013-02-18 20:31:00,34.7,15.0,30.12,South,186,0.0,0.0,44,0.00,,,0.00,0,WeatherCatV1.11B39,2013-02-19 01:31:00,
2013-02-18 20:35:00,35.0,14.8,30.12,South,186,0.0,0.0,43,0.00,,,0.00,0,WeatherCatV1.11B39,2013-02-19 01:35:00,
2013-02-18 20:40:00,35.2,15.0,30.12,South,186,0.0,0.0,43,0.00,,,0.00,0,WeatherCatV1.11B39,2013-02-19 01:40:00,
2013-02-18 20:45:00,35.5,13.6,30.12,South,186,0.0,1.0,40,0.00,,,0.00,0,WeatherCatV1.11B39,2013-02-19 01:45:00,
2013-02-18 20:50:00,35.6,13.7,30.12,South,186,0.0,2.0,40,0.00,,,0.00,0,WeatherCatV1.11B39,2013-02-19 01:50:00,
2013-02-18 20:55:00,35.0,13.1,30.12,South,186,0.0,0.0,40,0.00,,,0.00,0,WeatherCatV1.11B39,2013-02-19 01:55:00,
2013-02-18 21:00:00,34.7,12.3,30.12,South,186,0.0,2.0,39,0.00,,,0.00,0,WeatherCatV1.11B39,2013-02-19 02:00:00,
2013-02-18 21:12:00,34.6,12.2,30.12,South,186,0.0,2.0,39,0.00,,,0.00,0,WeatherCatV1.11B39,2013-02-19 02:12:00,
2013-02-18 21:17:00,34.7,12.9,30.12,South,186,0.0,0.0,40,0.00,,,0.00,0,WeatherCatV1.11B39,2013-02-19 02:17:00,
2013-02-18 21:22:00,34.3,12.5,30.12,South,186,0.0,2.0,40,0.00,,,0.00,0,WeatherCatV1.11B39,2013-02-19 02:22:00,
2013-02-18 21:27:00,34.1,13.4,30.12,South,188,1.0,2.0,42,0.00,,,0.00,0,WeatherCatV1.11B39,2013-02-19 02:27:00,
2013-02-18 21:32:00,34.0,12.8,30.11,SSW,193,2.0,2.0,41,0.00,,,0.00,0,WeatherCatV1.11B39,2013-02-19 02:32:00,
2013-02-18 21:37:00,33.8,13.2,30.11,SSW,195,2.0,2.0,42,0.00,,,0.00,0,WeatherCatV1.11B39,2013-02-19 02:37:00,
2013-02-18 21:42:00,33.7,11.4,30.11,WSW,240,2.0,5.0,39,0.00,,,0.00,0,WeatherCatV1.11B39,2013-02-19 02:42:00,
2013-02-18 21:47:00,33.7,12.0,30.11,SW,229,3.0,4.0,40,0.00,,,0.00,0,WeatherCatV1.11B39,2013-02-19 02:47:00,
2013-02-18 21:52:00,33.7,11.4,30.11,SW,220,2.0,4.0,39,0.00,,,0.00,0,WeatherCatV1.11B39,2013-02-19 02:52:00,
2013-02-18 21:57:00,33.7,11.4,30.11,SW,220,4.0,5.0,39,0.00,,,0.00,0,WeatherCatV1.11B39,2013-02-19 02:57:00,
2013-02-18 22:02:00,33.8,12.1,30.11,SW,222,2.0,5.0,40,0.00,,,0.00,0,WeatherCatV1.11B39,2013-02-19 03:02:00,
2013-02-18 22:07:00,34.1,12.3,30.11,SW,222,3.0,3.0,40,0.00,,,0.00,0,WeatherCatV1.11B39,2013-02-19 03:07:00,
2013-02-18 22:10:00,34.1,12.3,30.11,SW,221,2.0,5.0,40,0.00,,,0.00,0,WeatherCatV1.11B39,2013-02-19 03:10:00,
2013-02-18 22:12:00,34.1,14.0,30.11,SW,223,2.0,3.0,43,0.00,,,0.00,0,WeatherCatV1.11B39,2013-02-19 03:12:00,
2013-02-18 22:15:00,34.0,11.7,30.10,SW,222,2.0,3.0,39,0.00,,,0.00,0,WeatherCatV1.11B39,2013-02-19 03:15:00,
2013-02-18 22:20:00,34.1,12.9,30.10,SW,222,2.0,3.0,41,0.00,,,0.00,0,WeatherCatV1.11B39,2013-02-19 03:20:00,
2013-02-18 22:25:00,34.1,13.4,30.10,SW,222,1.0,2.0,42,0.00,,,0.00,0,WeatherCatV1.11B39,2013-02-19 03:25:00,
2013-02-18 22:30:00,33.8,13.7,30.10,SW,222,0.0,2.0,43,0.00,,,0.00,0,WeatherCatV1.11B39,2013-02-19 03:30:00,
2013-02-18 22:35:00,33.7,14.1,30.10,SW,222,1.0,1.0,44,0.00,,,0.00,0,WeatherCatV1.11B39,2013-02-19 03:35:00,
2013-02-18 22:40:00,33.2,13.7,30.10,SW,220,1.0,4.0,44,0.00,,,0.00,0,WeatherCatV1.11B39,2013-02-19 03:40:00,
2013-02-18 22:45:00,33.2,13.2,30.09,SSW,206,2.0,4.0,43,0.00,,,0.00,0,WeatherCatV1.11B39,2013-02-19 03:45:00,
2013-02-18 22:50:00,33.2,13.7,30.09,SSW,201,2.0,5.0,44,0.00,,,0.00,0,WeatherCatV1.11B39,2013-02-19 03:50:00,
2013-02-18 22:55:00,33.1,13.1,30.09,SSW,200,2.0,3.0,43,0.00,,,0.00,0,WeatherCatV1.11B39,2013-02-19 03:55:00,
2013-02-18 23:00:00,33.2,12.1,30.09,SSW,201,2.0,4.0,41,0.00,,,0.00,0,WeatherCatV1.11B39,2013-02-19 04:00:00,
2013-02-18 23:05:00,33.4,11.7,30.09,SSW,201,2.0,5.0,40,0.00,,,0.00,0,WeatherCatV1.11B39,2013-02-19 04:05:00,
2013-02-18 23:10:00,33.7,13.6,30.09,SSW,201,1.0,2.0,43,0.00,,,0.00,0,WeatherCatV1.11B39,2013-02-19 04:10:00,
2013-02-18 23:15:00,33.5,13.4,30.07,SSW,201,1.0,2.0,43,0.00,,,0.00,0,WeatherCatV1.11B39,2013-02-19 04:15:00,
2013-02-18 23:20:00,33.4,13.3,30.07,SSW,202,1.0,2.0,43,0.00,,,0.00,0,WeatherCatV1.11B39,2013-02-19 04:20:00,
2013-02-18 23:25:00,33.2,13.7,30.07,SSW,202,1.0,2.0,44,0.00,,,0.00,0,WeatherCatV1.11B39,2013-02-19 04:25:00,
2013-02-18 23:30:00,32.7,13.2,30.07,SSW,202,1.0,3.0,44,0.00,,,0.00,0,WeatherCatV1.11B39,2013-02-19 04:30:00,
2013-02-18 23:42:00,32.5,13.0,30.07,SSW,205,2.0,5.0,44,0.00,,,0.00,0,WeatherCatV1.11B39,2013-02-19 04:42:00,
2013-02-18 23:47:00,32.9,12.9,30.07,WSW,241,4.0,6.0,43,0.00,,,0.00,0,WeatherCatV1.11B39,2013-02-19 04:47:00,
2013-02-18 23:52:00,33.2,12.6,30.07,SW,234,4.0,6.0,42,0.00,,,0.00,0,WeatherCatV1.11B39,2013-02-19 04:52:00,
2013-02-18 23:57:00,33.5,13.4,30.07,SW,233,1.0,4.0,43,0.00,,,0.00,0,WeatherCatV1.11B39,2013-02-19 04:57:00,